Time,TemperatureF,DewpointF,PressureIn,WindDirection,WindDirectionDegrees,WindSpeedMPH,WindSpeedGustMPH,Humidity,HourlyPrecipIn,Conditions,Clouds,dailyrainin,SolarRadiationWatts/m^2,SoftwareType,DateUTC
2013-03-23 00:02:00,62.0,56.0,-100.00,NE,51,3.0,9.0,81,0.00,,,0.00,0.000000,,2013-03-23 05:02:00,
2013-03-23 00:12:00,62.0,56.0,-100.00,NE,51,3.0,9.0,81,0.00,,,0.00,0.000000,,2013-03-23 05:12:00,
2013-03-23 00:22:00,62.0,56.0,-100.00,NE,51,3.0,9.0,81,0.00,,,0.00,0.000000,,2013-03-23 05:22:00,
2013-03-23 00:32:00,60.0,55.0,-100.00,NE,47,4.0,7.0,85,0.00,,,0.00,0.000000,,2013-03-23 05:32:00,
2013-03-23 00:52:00,60.0,55.0,-100.00,NE,47,4.0,7.0,85,0.00,,,0.00,0.000000,,2013-03-23 05:52:00,
2013-03-23 01:02:00,60.0,55.0,-100.00,NE,47,4.0,7.0,85,0.00,,,0.00,0.000000,,2013-03-23 06:02:00,
2013-03-23 01:12:00,60.0,55.0,-100.00,NE,47,4.0,7.0,85,0.00,,,0.00,0.000000,,2013-03-23 06:12:00,
2013-03-23 01:22:00,60.0,55.0,-100.00,NE,47,4.0,7.0,85,0.00,,,0.00,0.000000,,2013-03-23 06:22:00,
2013-03-23 01:32:00,59.0,54.0,-100.00,NE,45,4.0,8.0,83,0.00,,,0.00,0.000000,,2013-03-23 06:32:00,
2013-03-23 01:52:00,59.0,54.0,-100.00,NE,45,4.0,8.0,83,0.00,,,0.00,0.000000,,2013-03-23 06:52:00,
2013-03-23 02:02:00,59.0,54.0,-100.00,NE,45,4.0,8.0,83,0.00,,,0.00,0.000000,,2013-03-23 07:02:00,
2013-03-23 02:12:00,59.0,54.0,-100.00,NE,45,4.0,8.0,83,0.00,,,0.00,0.000000,,2013-03-23 07:12:00,
2013-03-23 02:22:00,59.0,54.0,-100.00,NE,45,4.0,8.0,83,0.00,,,0.00,0.000000,,2013-03-23 07:22:00,
2013-03-23 02:32:00,58.0,53.0,-100.00,NE,52,3.0,8.0,82,0.00,,,0.00,0.000000,,2013-03-23 07:32:00,
2013-03-23 02:52:00,58.0,53.0,-100.00,NE,52,3.0,8.0,82,0.00,,,0.00,0.000000,,2013-03-23 07:52:00,
2013-03-23 03:02:00,58.0,53.0,-100.00,NE,52,3.0,8.0,82,0.00,,,0.00,0.000000,,2013-03-23 08:02:00,
2013-03-23 03:13:00,58.0,53.0,-100.00,NE,52,3.0,8.0,82,0.00,,,0.00,0.000000,,2013-03-23 08:13:00,
2013-03-23 03:22:00,58.0,53.0,-100.00,NE,52,3.0,8.0,82,0.00,,,0.00,0.000000,,2013-03-23 08:22:00,
2013-03-23 03:32:00,59.0,54.0,-100.00,NE,44,3.0,5.0,82,0.00,,,0.00,0.000000,,2013-03-23 08:32:00,
2013-03-23 03:52:00,59.0,54.0,-100.00,NE,44,3.0,5.0,82,0.00,,,0.00,0.000000,,2013-03-23 08:52:00,
2013-03-23 04:02:00,59.0,54.0,-100.00,NE,44,3.0,5.0,82,0.00,,,0.00,0.000000,,2013-03-23 09:02:00,
2013-03-23 04:12:00,59.0,54.0,-100.00,NE,44,3.0,5.0,82,0.00,,,0.00,0.000000,,2013-03-23 09:12:00,
2013-03-23 04:22:00,59.0,54.0,-100.00,NE,44,3.0,5.0,82,0.00,,,0.00,0.000000,,2013-03-23 09:22:00,
2013-03-23 04:32:00,58.0,53.0,-100.00,ENE,58,4.0,6.0,82,0.00,,,0.00,0.000000,,2013-03-23 09:32:00,
2013-03-23 04:53:00,58.0,53.0,-100.00,ENE,58,4.0,6.0,82,0.00,,,0.00,0.000000,,2013-03-23 09:53:00,
2013-03-23 05:03:00,58.0,53.0,-100.00,ENE,58,4.0,6.0,82,0.00,,,0.00,0.000000,,2013-03-23 10:03:00,
2013-03-23 05:13:00,58.0,53.0,-100.00,ENE,58,4.0,6.0,82,0.00,,,0.00,0.000000,,2013-03-23 10:13:00,
2013-03-23 05:23:00,58.0,53.0,-100.00,ENE,58,4.0,6.0,82,0.00,,,0.00,0.000000,,2013-03-23 10:23:00,
2013-03-23 05:32:00,59.0,54.0,-100.00,NE,39,3.0,8.0,82,0.00,,,0.00,0.000000,,2013-03-23 10:32:00,
2013-03-23 05:52:00,59.0,54.0,-100.00,NE,39,3.0,8.0,82,0.00,,,0.00,0.000000,,2013-03-23 10:52:00,
2013-03-23 06:03:00,59.0,54.0,-100.00,NE,39,3.0,8.0,82,0.00,,,0.00,0.000000,,2013-03-23 11:03:00,
2013-03-23 06:12:00,59.0,54.0,-100.00,NE,39,3.0,8.0,82,0.00,,,0.00,0.000000,,2013-03-23 11:12:00,
2013-03-23 06:22:00,59.0,54.0,-100.00,NE,39,3.0,8.0,82,0.00,,,0.00,0.000000,,2013-03-23 11:22:00,
2013-03-23 06:32:00,58.0,53.0,-100.00,NE,44,4.0,7.0,84,0.00,,,0.00,0.000000,,2013-03-23 11:32:00,
2013-03-23 06:52:00,58.0,53.0,-100.00,NE,44,4.0,7.0,84,0.00,,,0.00,0.000000,,2013-03-23 11:52:00,
2013-03-23 07:02:00,58.0,53.0,-100.00,NE,44,4.0,7.0,84,0.00,,,0.00,0.000000,,2013-03-23 12:02:00,
2013-03-23 07:13:00,58.0,53.0,-100.00,NE,44,4.0,7.0,84,0.00,,,0.00,0.000000,,2013-03-23 12:13:00,
2013-03-23 07:22:00,58.0,53.0,-100.00,NE,44,4.0,7.0,84,0.00,,,0.00,0.000000,,2013-03-23 12:22:00,
2013-03-23 07:32:00,57.0,52.0,-100.00,NE,46,6.0,10.0,83,0.00,,,0.00,2.000000,,2013-03-23 12:32:00,
2013-03-23 07:53:00,57.0,52.0,-100.00,NE,46,6.0,10.0,83,0.00,,,0.00,2.000000,,2013-03-23 12:53:00,
2013-03-23 08:03:00,57.0,52.0,-100.00,NE,46,6.0,10.0,83,0.00,,,0.00,2.000000,,2013-03-23 13:03:00,
2013-03-23 08:12:00,57.0,52.0,-100.00,NE,46,6.0,10.0,83,0.00,,,0.00,2.000000,,2013-03-23 13:12:00,
2013-03-23 08:23:00,57.0,52.0,-100.00,NE,46,6.0,10.0,83,0.00,,,0.00,2.000000,,2013-03-23 13:23:00,
2013-03-23 08:32:00,58.0,53.0,-100.00,ENE,63,4.0,9.0,82,0.00,,,0.00,42.000000,,2013-03-23 13:32:00,
2013-03-23 08:53:00,58.0,53.0,-100.00,ENE,63,4.0,9.0,82,0.00,,,0.00,42.000000,,2013-03-23 13:53:00,
2013-03-23 09:03:00,58.0,53.0,-100.00,ENE,63,4.0,9.0,82,0.00,,,0.00,42.000000,,2013-03-23 14:03:00,
2013-03-23 09:12:00,58.0,53.0,-100.00,ENE,63,4.0,9.0,82,0.00,,,0.00,42.000000,,2013-03-23 14:12:00,
2013-03-23 09:22:00,58.0,53.0,-100.00,ENE,63,4.0,9.0,82,0.00,,,0.00,42.000000,,2013-03-23 14:22:00,
2013-03-23 09:32:00,59.0,53.0,-100.00,ENE,64,3.0,10.0,80,0.00,,,0.00,109.000000,,2013-03-23 14:32:00,
2013-03-23 09:53:00,59.0,53.0,-100.00,ENE,64,3.0,10.0,80,0.00,,,0.00,109.000000,,2013-03-23 14:53:00,
2013-03-23 10:03:00,59.0,53.0,-100.00,ENE,64,3.0,10.0,80,0.00,,,0.00,109.000000,,2013-03-23 15:03:00,
2013-03-23 10:12:00,59.0,53.0,-100.00,ENE,64,3.0,10.0,80,0.00,,,0.00,109.000000,,2013-03-23 15:12:00,
2013-03-23 10:22:00,59.0,53.0,-100.00,ENE,64,3.0,10.0,80,0.00,,,0.00,109.000000,,2013-03-23 15:22:00,
2013-03-23 10:32:00,60.0,52.0,-100.00,NE,36,3.0,8.0,76,0.00,,,0.00,167.000000,,2013-03-23 15:32:00,
2013-03-23 10:53:00,60.0,52.0,-100.00,NE,36,3.0,8.0,76,0.00,,,0.00,167.000000,,2013-03-23 15:53:00,
2013-03-23 11:03:00,60.0,52.0,-100.00,NE,36,3.0,8.0,76,0.00,,,0.00,167.000000,,2013-03-23 16:03:00,
2013-03-23 11:13:00,60.0,52.0,-100.00,NE,36,3.0,8.0,76,0.00,,,0.00,167.000000,,2013-03-23 16:13:00,
2013-03-23 11:23:00,60.0,52.0,-100.00,NE,36,3.0,8.0,76,0.00,,,0.00,167.000000,,2013-03-23 16:23:00,
2013-03-23 11:32:00,61.0,53.0,-100.00,NE,40,5.0,10.0,74,0.00,,,0.00,202.000000,,2013-03-23 16:32:00,
2013-03-23 11:53:00,61.0,53.0,-100.00,NE,40,5.0,10.0,74,0.00,,,0.00,202.000000,,2013-03-23 16:53:00,
2013-03-23 12:02:00,61.0,53.0,-100.00,NE,40,5.0,10.0,74,0.00,,,0.00,202.000000,,2013-03-23 17:02:00,
2013-03-23 12:12:00,61.0,53.0,-100.00,NE,40,5.0,10.0,74,0.00,,,0.00,202.000000,,2013-03-23 17:12:00,
2013-03-23 12:22:00,61.0,53.0,-100.00,NE,40,5.0,10.0,74,0.00,,,0.00,202.000000,,2013-03-23 17:22:00,
2013-03-23 12:32:00,62.0,54.0,-100.00,NNE,31,4.0,17.0,75,0.00,,,0.00,156.000000,,2013-03-23 17:32:00,
2013-03-23 12:53:00,62.0,54.0,-100.00,NNE,31,4.0,17.0,75,0.00,,,0.00,156.000000,,2013-03-23 17:53:00,
2013-03-23 13:03:00,62.0,54.0,-100.00,NNE,31,4.0,17.0,75,0.00,,,0.00,156.000000,,2013-03-23 18:03:00,
2013-03-23 13:12:00,62.0,54.0,-100.00,NNE,31,4.0,17.0,75,0.00,,,0.00,156.000000,,2013-03-23 18:12:00,
2013-03-23 13:22:00,62.0,54.0,-100.00,NNE,31,4.0,17.0,75,0.00,,,0.00,156.000000,,2013-03-23 18:22:00,
2013-03-23 13:32:00,65.0,56.0,-100.00,ENE,67,5.0,11.0,73,0.00,,,0.00,281.000000,,2013-03-23 18:32:00,
2013-03-23 13:53:00,65.0,56.0,-100.00,ENE,67,5.0,11.0,73,0.00,,,0.00,281.000000,,2013-03-23 18:53:00,
2013-03-23 14:03:00,65.0,56.0,-100.00,ENE,67,5.0,11.0,73,0.00,,,0.00,281.000000,,2013-03-23 19:03:00,
2013-03-23 14:12:00,65.0,56.0,-100.00,ENE,67,5.0,11.0,73,0.00,,,0.00,281.000000,,2013-03-23 19:12:00,
2013-03-23 14:22:00,65.0,56.0,-100.00,ENE,67,5.0,11.0,73,0.00,,,0.00,281.000000,,2013-03-23 19:22:00,
2013-03-23 14:32:00,69.0,59.0,-100.00,ENE,62,4.0,7.0,70,0.00,,,0.00,315.000000,,2013-03-23 19:32:00,
2013-03-23 14:53:00,69.0,59.0,-100.00,ENE,62,4.0,7.0,70,0.00,,,0.00,315.000000,,2013-03-23 19:53:00,
2013-03-23 15:03:00,69.0,59.0,-100.00,ENE,62,4.0,7.0,70,0.00,,,0.00,315.000000,,2013-03-23 20:03:00,
2013-03-23 15:13:00,69.0,59.0,-100.00,ENE,62,4.0,7.0,70,0.00,,,0.00,315.000000,,2013-03-23 20:13:00,
2013-03-23 15:22:00,69.0,59.0,-100.00,ENE,62,4.0,7.0,70,0.00,,,0.00,315.000000,,2013-03-23 20:22:00,
2013-03-23 15:32:00,72.0,61.0,-100.00,East,86,6.0,10.0,68,0.00,,,0.00,431.000000,,2013-03-23 20:32:00,
2013-03-23 15:53:00,72.0,61.0,-100.00,East,86,6.0,10.0,68,0.00,,,0.00,431.000000,,2013-03-23 20:53:00,
2013-03-23 16:02:00,72.0,61.0,-100.00,East,86,6.0,10.0,68,0.00,,,0.00,431.000000,,2013-03-23 21:02:00,
2013-03-23 16:12:00,72.0,61.0,-100.00,East,86,6.0,10.0,68,0.00,,,0.00,431.000000,,2013-03-23 21:12:00,
2013-03-23 16:22:00,72.0,61.0,-100.00,East,86,6.0,10.0,68,0.00,,,0.00,431.000000,,2013-03-23 21:22:00,
2013-03-23 16:32:00,73.0,62.0,-100.00,East,83,4.0,12.0,69,0.00,,,0.00,369.000000,,2013-03-23 21:32:00,
2013-03-23 16:54:00,73.0,62.0,-100.00,East,83,4.0,12.0,69,0.00,,,0.00,369.000000,,2013-03-23 21:54:00,
2013-03-23 17:03:00,73.0,62.0,-100.00,East,83,4.0,12.0,69,0.00,,,0.00,369.000000,,2013-03-23 22:03:00,
2013-03-23 17:13:00,73.0,62.0,-100.00,East,83,4.0,12.0,69,0.00,,,0.00,369.000000,,2013-03-23 22:13:00,
2013-03-23 17:23:00,73.0,62.0,-100.00,East,83,4.0,12.0,69,0.00,,,0.00,369.000000,,2013-03-23 22:23:00,
2013-03-23 17:32:00,71.0,62.0,-100.00,East,85,3.0,12.0,72,0.00,,,0.00,85.000000,,2013-03-23 22:32:00,
2013-03-23 17:53:00,71.0,62.0,-100.00,East,85,3.0,12.0,72,0.00,,,0.00,85.000000,,2013-03-23 22:53:00,
2013-03-23 18:02:00,71.0,62.0,-100.00,East,85,3.0,12.0,72,0.00,,,0.00,85.000000,,2013-03-23 23:02:00,
2013-03-23 18:13:00,71.0,62.0,-100.00,East,85,3.0,12.0,72,0.00,,,0.00,85.000000,,2013-03-23 23:13:00,
2013-03-23 18:23:00,71.0,62.0,-100.00,East,85,3.0,12.0,72,0.00,,,0.00,85.000000,,2013-03-23 23:23:00,
2013-03-23 18:32:00,71.0,62.0,-100.00,NNE,22,2.0,7.0,74,0.00,,,0.00,64.000000,,2013-03-23 23:32:00,
2013-03-23 18:52:00,71.0,62.0,-100.00,NNE,22,2.0,7.0,74,0.00,,,0.00,64.000000,,2013-03-23 23:52:00,
2013-03-23 19:02:00,71.0,62.0,-100.00,NNE,22,2.0,7.0,74,0.00,,,0.00,64.000000,,2013-03-24 00:02:00,
2013-03-23 19:12:00,71.0,62.0,-100.00,NNE,22,2.0,7.0,74,0.00,,,0.00,64.000000,,2013-03-24 00:12:00,
2013-03-23 19:22:00,71.0,62.0,-100.00,NNE,22,2.0,7.0,74,0.00,,,0.00,64.000000,,2013-03-24 00:22:00,
2013-03-23 19:32:00,69.0,62.0,-100.00,NNE,30,3.0,5.0,79,0.00,,,0.00,2.000000,,2013-03-24 00:32:00,
2013-03-23 19:53:00,69.0,62.0,-100.00,NNE,30,3.0,5.0,79,0.00,,,0.00,2.000000,,2013-03-24 00:53:00,
2013-03-23 20:02:00,69.0,62.0,-100.00,NNE,30,3.0,5.0,79,0.00,,,0.00,2.000000,,2013-03-24 01:02:00,
2013-03-23 20:12:00,69.0,62.0,-100.00,NNE,30,3.0,5.0,79,0.00,,,0.00,2.000000,,2013-03-24 01:12:00,
2013-03-23 20:22:00,69.0,62.0,-100.00,NNE,30,3.0,5.0,79,0.00,,,0.00,2.000000,,2013-03-24 01:22:00,
2013-03-23 20:32:00,65.0,57.0,-100.00,NNE,31,3.0,12.0,76,0.00,,,0.00,0.000000,,2013-03-24 01:32:00,
2013-03-23 20:53:00,65.0,57.0,-100.00,NNE,31,3.0,12.0,76,0.00,,,0.00,0.000000,,2013-03-24 01:53:00,
2013-03-23 21:03:00,65.0,57.0,-100.00,NNE,31,3.0,12.0,76,0.00,,,0.00,0.000000,,2013-03-24 02:03:00,
2013-03-23 21:12:00,65.0,57.0,-100.00,NNE,31,3.0,12.0,76,0.00,,,0.00,0.000000,,2013-03-24 02:12:00,
2013-03-23 21:22:00,65.0,57.0,-100.00,NNE,31,3.0,12.0,76,0.00,,,0.00,0.000000,,2013-03-24 02:22:00,
2013-03-23 21:32:00,60.0,56.0,-100.00,NNW,335,4.0,13.0,86,0.00,,,0.00,0.000000,,2013-03-24 02:32:00,
2013-03-23 21:52:00,60.0,56.0,-100.00,NNW,335,4.0,13.0,86,0.00,,,0.00,0.000000,,2013-03-24 02:52:00,
2013-03-23 22:02:00,60.0,56.0,-100.00,NNW,335,4.0,13.0,86,0.00,,,0.00,0.000000,,2013-03-24 03:02:00,
2013-03-23 22:12:00,60.0,56.0,-100.00,NNW,335,4.0,13.0,86,0.00,,,0.00,0.000000,,2013-03-24 03:12:00,
2013-03-23 22:22:00,60.0,56.0,-100.00,NNW,335,4.0,13.0,86,0.00,,,0.00,0.000000,,2013-03-24 03:22:00,
2013-03-23 23:32:00,57.0,52.0,-100.00,NW,325,2.0,12.0,84,-99.99,,,0.00,0.000000,,2013-03-24 04:32:00,
2013-03-23 23:53:00,57.0,52.0,-100.00,NW,325,2.0,12.0,84,-99.99,,,0.00,0.000000,,2013-03-24 04:53:00,